Pascagoula, MS

12:48 PM CDT on July 21, 2017 (GMT -0500)
Lott International

Weather History for KPQL - February, 2013

Change the Weather History Date:

Thursday, February 28, 2013

  Actual Average Record
Temperature  
Mean Temperature 51 °F -  
Max Temperature 59 °F 66 °F 79 °F (1961)
Min Temperature 43 °F 48 °F 19 °F (2002)
Degree Days  
Heating Degree Days 14    
Growing Degree Days 1 (Base 50)    
Moisture  
Dew Point 34 °F    
Average Humidity 52    
Maximum Humidity 86    
Minimum Humidity 33    
Precipitation  
Precipitation 0.00 in - - ()
Sea Level Pressure  
Sea Level Pressure 30.07 in    
Wind  
Wind Speed 6 mph (NW)    
Max Wind Speed 10 mph    
Max Gust Speed 18 mph    
Visibility 10 miles    
Events      
Averages and records for this station are not official NWS values.
T = Trace of Precipitation, MM = Missing Value Source: NWS Daily Summary

Daily Weather History Graph

Daily Weather History Graph

Search for Another Location

Airport or City:

Trip Planner

Search our weather history database for the weather conditions in past years. The results will help you decide how hot, cold, wet, or windy it might be!

Date:

Astronomy

Feb. 28, 2013 Rise Set
Actual Time 6:21 AM CST 5:52 PM CST
Civil Twilight 5:57 AM CST 6:16 PM CST
Nautical Twilight 5:29 AM CST 6:44 PM CST
Astronomical Twilight 5:01 AM CST 7:12 PM CST
Moon 9:00 PM CST (2/28) 7:46 AM CST (2/28)
Length of Visible Light 12h 19m
Length of Day
11h 31m
Waning Gibbous, 90% of the Moon is Illuminated
Feb 28
Waning Gibbous
Mar 4
Last Quarter
Mar 11
New
Mar 19
First Quarter
Mar 27
Full

Hourly Weather History & Observations

Time (CST) Temp. Windchill Dew Point Humidity Pressure Visibility Wind Dir Wind Speed Gust Speed Precip Events Conditions
1:53 AM 53.1 °F - 39.9 °F 61% 30.02 in 10.0 mi NW 4.6 mph - N/A   Scattered Clouds
2:53 AM 52.0 °F - 37.0 °F 57% 30.02 in 10.0 mi NNW 4.6 mph - N/A   Overcast
3:53 AM 50.0 °F - 37.0 °F 61% 30.03 in 10.0 mi NNW 8.1 mph - N/A   Clear
4:53 AM 48.0 °F - 37.9 °F 68% 30.05 in 10.0 mi North 10.4 mph - N/A   Clear
5:53 AM 44.1 °F 42.5 °F 37.0 °F 76% 30.06 in 10.0 mi North 3.5 mph - N/A   Clear
6:53 AM 43.0 °F - 39.0 °F 86% 30.09 in 10.0 mi Calm Calm - N/A   Clear
7:53 AM 50.0 °F - 37.0 °F 61% 30.10 in 10.0 mi North 5.8 mph - N/A   Clear
8:53 AM 53.1 °F - 35.1 °F 50% 30.10 in 10.0 mi NNW 5.8 mph - N/A   Clear
9:53 AM 54.0 °F - 34.0 °F 47% 30.11 in 10.0 mi Variable 5.8 mph - N/A   Clear
10:53 AM 55.9 °F - 32.0 °F 40% 30.09 in 10.0 mi WNW 8.1 mph 18.4 mph N/A   Clear
11:53 AM 57.9 °F - 32.0 °F 37% 30.08 in 10.0 mi NW 5.8 mph - N/A   Clear
12:53 PM 57.9 °F - 32.0 °F 37% 30.05 in 10.0 mi WNW 10.4 mph 16.1 mph N/A   Clear
1:53 PM 59.0 °F - 30.0 °F 33% 30.04 in 10.0 mi NW 9.2 mph - N/A   Clear
2:53 PM 55.9 °F - 28.0 °F 34% 30.03 in 8.0 mi WNW 6.9 mph - N/A   Clear
3:53 PM 55.0 °F - 28.0 °F 35% 30.03 in 10.0 mi NW 8.1 mph - N/A   Clear
4:53 PM 53.1 °F - 28.9 °F 40% 30.04 in 10.0 mi NNW 9.2 mph - N/A   Clear
5:53 PM 52.0 °F - 33.1 °F 49% 30.05 in 10.0 mi North 4.6 mph - N/A   Clear
6:53 PM 50.0 °F - 32.0 °F 50% 30.06 in 10.0 mi North 3.5 mph - N/A   Clear
7:53 PM 48.9 °F - 33.1 °F 54% 30.08 in 10.0 mi WNW 5.8 mph - N/A   Clear
8:53 PM 48.9 °F - 33.1 °F 54% 30.10 in 10.0 mi WNW 3.5 mph - N/A   Clear
9:53 PM 48.0 °F - 33.1 °F 56% 30.11 in 10.0 mi NW 4.6 mph - N/A   Clear
10:53 PM 48.0 °F - 33.1 °F 56% 30.12 in 10.0 mi Variable 3.5 mph - N/A   Clear
11:53 PM 46.9 °F - 34.0 °F 61% 30.12 in 10.0 mi Calm Calm - N/A   Clear